Location: Pine Mountain Observatory
(43.7910°N, 120.9377°W)
Time: 00:03:30
(UTC-07:00)

Cosmos 1867 - Visible Passes

Search period start: 30 April 2017 00:00
Search period end: 10 May 2017 00:00
Orbit: 777 x 799 km, 65.0° (Epoch: 28 April)

Date Brightness Start Highest point End Pass type
(mag) Time Alt. Az. Time Alt. Az. Time Alt. Az.
30 Apr 3.7 20:39:55 10° NW 20:45:24 87° SW 20:50:50 10° SSE visible
30 Apr 6.0 22:25:49 10° W 22:28:09 13° WSW 22:30:29 10° SW visible
01 May 5.8 21:53:08 10° WNW 21:56:44 18° WSW 22:00:18 10° SSW visible
02 May 5.5 21:20:56 10° WNW 21:25:16 25° WSW 21:29:35 10° SSW visible
03 May 5.1 20:48:56 10° NW 20:53:47 33° WSW 20:58:35 10° S visible
06 May 6.3 20:59:50 10° W 21:01:45 12° WSW 21:03:41 10° SW visible
